Find Starlink 6255

NORAD ID: 56550 Int'l Des: 2023-065 Owner: SPXS Country: US Constellation: starlink operational
LEOCIRCULAR

Live-Position

3D-Globus wird geladen...

Über Starlink 6255

Beschreibung wird geladen...

Nächste Überflüge

Passes for default location (London). Set your location on the main map for personalized predictions.

Höhenverlauf

Loading altitude history...

Zweizeiliger Elementsatz

1 56550U 23065AZ 26118.80757729 .00000461 00000-0 26296-4 0 9990
2 56550 43.0017 300.8311 0001412 259.0503 101.0189 15.27574523164132
Epoch: 28. Apr. 2026 • Age: 25 hours

Aktueller Status

Höhe 495.1 km
Geschwindigkeit 7.62 km/s
Subsatellitenpunkt -42.33°S, 58.81°E
Startdatum 14. Mai 2023
Alter 2.9 years
Typ internet

Technische Details

Klassifizierung Payload
Masse 305.00 kg
Trockenmasse 290.00 kg
Gesamtmasse 305.00 kg
Länge 0.20 m
Durchmesser 2.80 m
Spannweite 9.00 m
Form Box + pan
Hersteller SPXS
Bus-Typ Starlink
Phasenstatus In Orbit
Besitzer/Staat SPXS/US

Most Searched